Dewpoint
35 33 31 31 31 30 29 28 28 28 28 29 30 30 30 31 29 28 29 32 33 35 36 37 40 40 42 46 47 49 51 55 57 60 61 62 63 64 65 64 65 65 64 64
33 32 32 32 31 30 31 30 29 29 30 30 31 29 28 26 26 28 28 32 33 35 33 35 36 38 40 41 43 43 45 48 49 50 57 62 61 62 62 62 65 65 65 64
32 32 33 31 30 31 32 30 29 28 30 31 29 25 24 28 29 30 31 32 34 33 31 31 32 36 37 39 42 41 42 44 47 49 47 49 52 57 59 61 61 63 64 64
33 34 32 31 31 32 30 31 30 31 30 25 25 19 23 27 28 29 31 32 32 31 30 30 31 34 36 36 38 39 41 41 42 45 45 46 45 45 47 49 54 57 58 59
32 32 31 31 30 31 30 32 31 30 27 26 23 21 20 24 26 28 31 33 32 33 33 32 32 33 34 38 39 40 38 37 40 43 44 43 43 44 44 46 48 49 50 53
33 33 31 31 32 31 31 30 30 26 24 21 22 21 19 19 21 27 31 31 32 34 34 34 34 35 33 34 35 37 38 36 34 38 41 43 44 44 44 44 46 45 47 49
33 32 31 31 30 30 30 27 24 23 22 21 21 18 20 27 27 29 30 32 34 35 36 37 34 28 28 29 30 32 31 33 35 35 38 41 43 43 44 44 43 46 46 48
32 30 31 30 28 27 27 26 25 23 19 19 21 18 19 29 31 32 32 33 34 31 29 28 27 27 28 29 29 28 29 31 32 35 37 40 42 42 41 43 45 47 48 49
30 29 30 30 30 28 26 25 26 24 24 23 22 25 31 31 32 32 29 26 26 26 26 25 25 26 27 26 25 27 29 30 33 34 38 40 43 44 44 44 46 48 48 48
26 26 26 29 29 28 26 26 25 25 23 19 17 15 14 30 31 27 24 25 26 25 23 23 22 21 21 22 25 27 30 30 33 34 37 39 40 43 44 46 46 47 48 47
26 24 26 28 27 25 26 26 25 26 26 21 16 14 28 31 31 25 26 25 24 21 18 18 21 20 21 22 23 26 27 30 32 33 35 38 42 44 45 45 45 45 47 46
27 25 25 25 25 25 25 24 26 26 26 27 22 17 26 28 27 26 22 20 19 16 15 17 17 16 17 17 18 21 25 25 27 27 30 32 35 38 41 42 41 40 40 42
28 27 23 26 25 26 25 25 25 26 32 25 22 19 26 26 24 22 16 17 14 13 12 13 12 13 16 17 17 19 19 20 21 21 22 25 27 29 30 33 37 40 40 40
31 28 28 26 23 23 24 24 25 25 30 27 22 19 19 20 20 14 14 12 11 9 8 10 11 12 12 13 14 17 18 18 19 20 21 21 24 26 27 29 31 34 39 41
31 30 29 30 28 23 21 24 23 24 28 24 22 19 18 14 13 12 9 7 7 6 6 7 9 9 8 9 11 12 14 15 17 18 19 20 23 23 24 28 31 31 35 39
33 32 29 28 23 20 17 18 21 22 21 20 20 18 16 15 8 4 4 6 5 4 4 5 6 7 9 10 12 13 14 15 17 18 19 20 21 23 24 25 28 29 28 31
33 33 28 25 24 22 20 21 20 19 20 20 17 17 13 5 1 3 7 5 5 5 6 7 8 10 13 15 16 16 17 17 17 18 19 19 19 20 22 21 21 24 28 32
31 30 30 28 20 17 19 13 16 20 18 17 15 8 1 1 3 5 5 5 5 9 13 16 18 19 20 21 21 22 22 22 23 21 18 19 19 20 21 23 23 26 29 32
32 31 27 23 20 17 9 8 7 7 9 10 4 -0 -0 4 5 5 5 12 17 18 20 21 21 22 22 22 22 22 23 23 24 24 25 23 22 23 23 26 30 31 34 38
30 28 24 24 22 17 9 11 3 3 0 2 1 6 7 5 2 2 15 18 18 18 19 21 23 23 23 23 24 24 25 26 26 28 29 29 30 29 30 34 36 37 39 39
23 27 24 21 17 14 5 6 5 -5 5 11 10 10 7 8 11 18 21 16 12 15 19 22 23 24 24 25 26 26 27 27 29 30 31 34 34 35 35 36 39 39 38 38
21 19 19 21 18 14 7 9 1 11 16 13 11 10 14 19 22 21 14 11 14 15 17 21 23 25 26 26 26 27 29 29 30 32 33 36 38 36 35 36 38 38 36 36
16 18 17 16 15 13 11 11 11 12 9 9 13 18 21 22 17 12 12 15 15 16 18 23 26 26 27 27 29 31 31 33 34 36 36 37 36 36 37 36 36 35 36 35
14 13 13 10 10 10 11 10 12 8 12 14 21 23 19 13 13 14 14 14 15 18 23 25 26 26 27 29 30 32 35 36 37 36 37 37 37 36 36 36 35 35 33 33
12 12 12 9 5 7 9 11 7 10 18 24 20 15 13 14 14 14 14 15 17 22 25 26 26 27 29 30 33 35 36 36 35 34 36 37 37 35 35 34 34 34 34 34
10 12 10 9 9 8 7 9 13 20 22 19 14 13 14 14 13 15 16 16 19 24 26 27 27 28 29 33 34 34 35 34 34 33 33 36 35 35 34 33 33 35 33 32
Wind_Speed
19 21 27 26 24 25 22 17 19 15 10 13 16 21 22 17 14 14 12 10 8 8 7 9 10 12 12 13 13 12 11 11 9 4 3 5 8 10 11 15 16 16 18 18
13 28 26 23 21 20 21 22 23 20 17 14 17 22 21 18 12 8 7 11 12 11 9 8 9 9 10 10 10 10 11 10 11 8 4 6 9 9 10 10 11 12 13 18
25 13 21 23 20 18 19 21 20 20 18 16 21 28 26 7 7 7 10 12 12 10 9 6 6 7 7 9 9 9 10 9 9 9 6 7 6 5 7 7 10 11 14 18
22 25 12 15 23 19 22 18 19 17 17 16 5 11 4 18 16 15 14 14 11 9 7 6 5 6 6 8 9 9 9 8 7 8 8 8 8 9 7 9 8 11 9 6
22 17 23 20 21 18 19 15 11 14 19 21 22 15 24 24 21 16 15 13 10 8 5 5 4 4 5 6 7 8 10 10 8 8 8 9 9 10 9 8 10 11 10 10
26 12 15 20 19 15 6 10 14 16 17 23 24 22 14 17 18 24 16 12 10 6 4 1 2 3 4 3 7 9 11 13 12 11 11 10 11 11 11 10 11 9 11 9
23 25 14 11 13 12 17 13 9 14 15 20 5 10 22 13 13 18 16 12 7 4 1 3 6 7 7 8 9 10 12 14 16 15 15 14 14 14 14 12 10 9 9 9
23 17 29 19 25 14 21 22 13 7 13 13 9 8 6 17 15 13 12 9 5 3 5 7 9 12 13 15 16 16 16 18 18 18 17 16 16 16 15 14 11 11 10 10
24 17 7 8 20 24 19 26 23 24 22 19 16 9 10 16 16 16 13 9 6 2 7 12 15 16 17 18 20 21 22 20 20 20 18 18 18 19 18 18 15 13 12 12
6 11 8 12 8 20 27 12 14 16 8 16 13 19 17 20 16 14 11 5 2 7 11 13 15 18 19 19 18 18 18 20 18 17 17 17 18 19 19 18 18 17 16 15
10 13 13 13 20 20 18 22 18 14 17 7 14 6 10 19 18 13 5 2 7 13 17 16 16 17 18 19 18 19 20 17 16 16 16 16 15 16 17 18 19 18 16 18
18 9 14 21 8 15 16 25 24 13 9 14 11 12 12 14 14 8 5 6 12 15 16 16 17 17 16 17 19 18 18 21 16 18 18 16 18 17 17 17 16 16 17 18
21 13 15 7 12 14 17 26 27 25 6 23 20 5 13 11 9 9 9 12 13 15 16 16 17 17 17 19 21 17 16 18 19 18 20 20 19 18 17 19 23 22 21 20
13 11 18 22 9 7 31 27 25 24 19 24 31 28 18 16 15 15 14 14 15 17 19 17 17 18 20 20 21 22 18 21 23 21 21 22 22 20 19 16 17 23 22 22
14 16 25 26 17 13 15 30 28 31 28 28 23 31 17 18 20 15 14 15 17 19 20 21 21 22 23 23 23 23 25 24 23 25 26 24 22 21 18 20 16 19 20 18
13 6 17 20 10 9 15 16 22 27 26 24 25 27 18 18 10 13 15 16 19 21 21 22 22 22 24 25 25 26 27 28 27 27 27 28 26 27 24 21 18 20 19 19
15 12 13 13 13 11 17 26 24 22 22 22 24 23 14 11 14 14 14 18 20 21 22 22 23 25 27 27 27 28 29 29 30 31 31 31 29 28 27 27 25 21 18 20
18 19 10 7 12 13 5 1 16 31 27 23 21 14 13 14 12 12 14 21 21 18 22 27 28 29 30 30 30 30 31 31 30 31 30 29 28 29 27 26 24 19 18 20
15 10 7 9 19 11 7 8 9 16 20 14 12 13 12 8 13 17 18 12 19 22 24 25 27 29 30 30 31 31 32 30 31 31 31 32 28 27 24 24 21 19 19 19
16 16 12 9 9 11 4 19 10 6 14 16 10 7 7 9 18 16 16 19 21 21 22 24 25 26 27 28 28 29 30 30 31 28 26 28 26 26 19 20 22 17 16 17
20 16 20 15 11 7 14 16 13 10 2 13 9 7 9 13 15 18 19 21 21 21 23 23 24 25 27 28 27 29 29 29 27 28 29 25 22 21 20 21 21 18 17 16
18 17 14 15 16 19 18 18 14 8 10 6 5 7 9 11 14 15 20 21 21 22 22 22 23 24 25 25 24 28 28 29 26 25 25 22 20 18 18 20 21 15 15 16
13 13 13 13 14 3 20 14 11 6 3 4 5 7 10 12 14 16 18 20 20 21 21 22 24 26 25 24 22 26 29 26 25 25 22 18 19 19 17 19 19 16 15 16
14 15 6 10 8 13 18 12 7 4 5 3 4 7 8 12 14 16 17 18 18 18 20 22 24 25 25 24 26 26 25 25 23 22 19 18 17 17 15 14 14 12 13 15
11 16 14 16 7 13 17 15 9 8 4 4 4 5 7 9 11 13 15 16 16 17 19 21 22 22 24 25 24 23 21 21 21 19 18 17 12 14 14 13 14 13 13 13
11 13 18 12 15 15 15 14 7 8 8 5 3 4 5 7 9 11 13 14 15 17 18 20 22 23 24 23 21 22 21 19 17 17 16 14 9 11 11 12 13 12 16 15
Wind_Direction
205 211 221 228 223 251 273 280 271 269 263 263 255 254 261 255 255 246 207 196 177 146 118 97 73 55 49 41 42 43 42 28 28 360 307 277 268 257 251 252 247 223 224 213
189 226 235 235 249 238 243 256 259 271 271 274 275 266 265 259 269 295 193 167 161 157 129 102 84 69 52 41 25 23 23 20 10 6 330 290 305 296 295 289 271 252 233 229
225 231 232 240 236 236 243 250 262 267 285 283 273 267 269 159 139 137 135 145 152 146 136 117 85 63 44 40 29 23 14 19 13 352 344 331 282 274 288 306 313 286 275 245
230 243 215 235 230 230 244 243 251 266 266 268 147 281 156 160 150 153 148 155 150 148 120 95 75 53 41 23 7 359 359 358 2 351 340 338 318 310 323 295 286 288 286 288
221 226 227 227 229 228 250 266 262 260 266 272 261 255 259 183 173 166 160 150 146 121 114 99 74 36 63 12 346 331 321 314 320 322 324 318 314 316 312 312 310 296 292 286
240 201 231 241 235 234 227 255 250 253 254 257 250 239 253 219 203 151 151 153 141 125 111 344 98 26 44 23 342 329 314 307 302 295 293 292 296 302 304 304 299 305 306 308
216 235 219 231 210 205 218 220 240 227 224 240 252 220 226 111 110 145 154 144 145 160 218 307 2 358 356 348 338 323 318 303 297 292 283 278 274 274 275 278 285 296 298 304
211 215 212 193 217 197 210 214 212 248 254 289 112 215 158 113 118 114 126 135 143 81 26 342 338 338 328 323 319 317 303 298 291 281 276 273 270 269 269 269 272 279 284 285
191 219 177 203 208 225 207 220 237 264 267 269 256 120 128 145 141 138 135 138 123 45 345 333 334 321 317 316 315 315 307 297 295 291 287 282 274 270 271 272 268 266 270 272
217 200 216 161 224 227 239 222 211 229 240 240 234 229 244 166 160 147 142 122 33 331 325 318 315 317 318 318 315 310 311 304 296 294 293 287 282 278 273 272 267 267 268 269
211 227 179 169 206 201 203 223 219 238 216 251 272 252 108 156 158 156 136 268 319 328 321 318 318 315 314 310 310 312 310 303 301 298 303 305 301 288 279 272 271 274 271 276
208 221 188 204 233 236 231 215 208 214 211 225 265 276 129 135 144 166 230 310 337 323 319 317 315 309 312 316 312 305 306 304 316 316 313 316 309 312 315 299 284 297 299 297
184 208 202 251 210 230 228 219 217 219 222 233 231 192 136 141 183 225 332 344 325 314 315 315 311 313 316 313 314 310 311 312 303 303 306 302 305 309 312 325 329 317 311 302
175 195 209 221 216 258 214 222 219 225 225 234 238 251 232 252 257 329 336 324 310 310 305 305 308 317 314 311 311 314 307 310 312 308 301 306 313 314 302 296 297 300 302 302
175 219 222 238 268 259 253 215 221 223 225 238 253 259 276 295 304 325 315 301 303 306 313 310 307 305 304 305 304 301 300 301 297 292 295 294 290 285 288 294 289 291 292 283
199 226 234 233 209 246 245 232 227 229 234 236 251 260 278 287 310 300 301 306 307 310 307 304 303 306 309 307 307 304 299 295 293 291 290 289 288 288 287 278 273 279 273 285
185 175 181 213 211 234 257 230 230 231 232 238 248 268 280 285 284 295 313 301 300 300 298 307 312 310 309 307 304 300 300 300 295 290 288 288 288 284 285 285 282 279 291 298
189 182 179 170 153 223 231 249 238 232 236 236 242 253 270 274 294 302 298 296 295 318 318 313 309 305 302 300 299 299 298 295 291 288 287 285 289 294 291 286 281 287 292 290
189 167 156 185 210 283 235 197 193 209 223 212 234 248 261 285 294 289 279 328 332 316 307 305 309 310 309 308 308 302 297 297 298 298 295 291 288 287 292 300 304 302 300 292
189 192 200 190 216 232 349 167 171 142 239 217 218 222 236 282 278 287 339 330 312 307 307 310 311 311 307 305 307 305 303 306 303 301 304 304 307 304 297 313 304 291 283 283
189 200 209 204 224 249 143 130 147 199 174 135 162 203 264 270 284 310 313 305 306 311 311 312 309 311 311 313 314 308 305 302 307 309 304 304 304 296 304 299 288 289 283 280
178 186 199 215 217 238 173 158 191 115 132 159 215 258 274 281 287 295 298 307 313 311 312 314 315 317 315 309 311 309 306 306 302 301 303 304 300 302 297 290 286 270 271 275
199 200 196 198 219 96 174 172 167 131 188 236 269 288 287 296 297 304 309 312 313 314 316 323 322 315 311 312 315 308 308 308 312 302 303 290 290 287 293 285 281 276 272 271
217 197 211 177 203 171 173 151 160 191 209 240 265 284 295 300 313 313 314 310 317 323 327 323 320 317 316 321 321 315 305 306 300 297 292 292 277 285 284 271 270 270 276 274
184 176 203 207 173 184 187 195 202 187 180 231 230 278 305 309 306 308 310 318 324 326 327 327 321 318 319 327 321 313 306 309 307 305 300 294 272 280 277 271 267 266 263 264
178 191 205 214 202 197 205 213 161 182 209 193 242 288 299 298 302 314 316 329 335 331 329 326 327 324 323 317 319 321 320 316 304 293 299 293 289 283 278 278 288 262 263 275